FW0042 Weather Reports


time (UTC)temp
F
wind
direction
speed
knots
gust
knots
rain 1hr
in
rain 24hr
in
rain mn
in
humidity
%
barometer
mb
20260507134502 51 103 0.0 0.9 0.00 0.00 0.00 49 1016.7
20260507133105 50 96 0.0 0.9 0.00 0.00 0.00 52 1016.8
20260507131603 50 86 0.0 0.0 0.00 0.00 0.00 49 1016.9
20260507130058 50 103 0.0 1.7 0.00 0.00 0.00 50 1017.0
20260507124559 51 135 0.0 1.7 0.00 0.00 0.00 50 1017.1
20260507123057 51 128 0.0 1.7 0.00 0.00 0.00 52 1017.0
20260507121553 51 72 0.0 0.9 0.00 0.00 0.00 51 1017.2
20260507120052 51 126 0.0 2.6 0.00 0.00 0.00 52 1017.3
20260507114549 50 121 0.0 1.7 0.00 0.00 0.00 51 1017.3
20260507113048 50 140 0.0 1.7 0.00 0.00 0.00 54 1017.2
20260507111547 49 144 0.0 1.7 0.00 0.00 0.00 54 1017.3
20260507110050 49 156 0.0 5.2 0.00 0.00 0.00 54 1017.3
20260507104543 50 121 0.0 0.9 0.00 0.00 0.00 53 1017.2
20260507103042 51 5 0.0 0.0 0.00 0.00 0.00 59 1017.2
20260507101557 53 5 0.0 0.0 0.00 0.00 0.00 58 1017.2
20260507100040 53 5 0.0 0.0 0.00 0.00 0.00 57 1017.2
20260507094543 54 5 0.0 0.0 0.00 0.00 0.00 60 1017.2
20260507093037 55 15 0.0 0.0 0.00 0.00 0.00 56 1017.3
20260507091551 56 17 0.0 0.0 0.00 0.00 0.00 60 1017.3
20260507090035 55 24 0.0 0.0 0.00 0.00 0.00 66 1017.4
20260507084531 56 350 0.0 0.9 0.00 0.00 0.00 58 1017.4
20260507083030 55 355 0.0 0.0 0.00 0.00 0.00 58 1017.4
20260507081534 54 19 0.0 0.0 0.00 0.00 0.00 64 1017.2
20260507080021 53 340 0.0 0.0 0.00 0.00 0.00 64 1017.2
20260507074517 51 333 0.0 0.0 0.00 0.00 0.00 70 1017.2
20260507073012 49 346 0.0 0.0 0.00 0.00 0.00 75 1017.1
20260507071509 47 355 0.0 0.0 0.00 0.00 0.00 85 1017.2
20260507070007 45 11 0.0 0.0 0.00 0.00 0.00 89 1017.2
20260507064600 43 11 0.0 0.0 0.00 0.00 0.00 94 1017.2
20260507063100 41 15 0.0 0.0 0.00 0.00 0.00 95 1017.2
20260507061551 40 15 0.0 0.0 0.00 0.00 0.00 96 1017.1
20260507060046 0 0.0 0.0 0.00 0.00 0.00 1017.1
20260507054546 0 0.0 0.0 0.00 0.00 0.00 1017.1
20260507053042 0 0.0 0.0 0.00 0.00 0.00 1017.0
20260507051533 0 0.0 0.0 0.00 0.00 0.00 1016.9
20260507050033 0 0.0 0.0 0.00 0.00 0.00 1016.8
20260507044539 0 0.0 0.0 0.00 0.00 0.00 1016.7
20260507043019 0 0.0 0.0 0.00 0.00 0.00 1016.7
20260507041516 0 0.0 0.0 0.00 0.00 0.00 1016.6
20260507040011 0 0.0 0.0 0.00 0.00 0.00 1016.6
20260507034507 0 0.0 0.0 0.00 0.00 0.00 1016.6
20260507033007 0 0.0 0.0 0.00 0.00 0.00 1016.5
20260507031558 0 0.0 0.0 0.00 0.00 0.00 1016.5
20260507030105 0 0.0 0.0 0.00 0.00 0.00 1016.4
20260507024550 0 0.0 0.0 0.00 0.00 0.00 1016.3
20260507023045 0 0.0 0.0 0.00 0.00 0.00 1016.3
20260507021543 36 322 0.0 0.0 0.00 0.00 0.00 94 1016.2
20260507020046 36 327 0.0 0.0 0.00 0.00 0.00 94 1016.0
20260507014641 36 324 0.0 0.0 0.00 0.00 0.00 94 1016.0
20260507013039 36 315 0.0 0.0 0.00 0.00 0.00 94 1016.0
20260507011539 36 337 0.0 0.0 0.00 0.00 0.00 94 1015.9
20260507010037 36 313 0.0 0.0 0.00 0.00 0.00 94 1015.8
20260507004540 37 306 0.0 0.0 0.00 0.00 0.00 94 1015.8
20260507003034 37 342 0.0 0.0 0.00 0.00 0.00 94 1015.8
20260507001535 37 355 0.0 0.0 0.00 0.00 0.00 94 1015.8
20260507000033 37 344 0.0 0.0 0.00 0.00 0.00 95 1015.8
20260506234533 37 317 0.0 0.0 0.00 0.01 0.00 94 1015.7
20260506233031 37 342 0.0 0.0 0.00 0.01 0.00 94 1015.7
20260506231529 36 346 0.0 0.0 0.00 0.01 0.00 94 1015.6
20260506230028 36 302 0.0 0.9 0.00 0.01 0.00 94 1015.5
20260506224528 36 302 0.0 0.0 0.00 0.01 0.00 94 1015.3
20260506223026 36 302 0.0 0.0 0.00 0.01 0.00 94 1015.3
20260506220028 36 302 0.0 0.0 0.00 0.01 0.00 94 1015.2
20260506214521 37 302 0.0 0.0 0.00 0.01 0.01 94 1015.2
20260506213020 37 302 0.0 0.0 0.00 0.01 0.01 93 1015.2
20260506211518 37 302 0.0 0.9 0.00 0.01 0.01 93 1015.3
20260506210020 37 315 0.0 0.0 0.00 0.01 0.01 93 1015.2
20260506204523 38 320 0.0 0.0 0.00 0.01 0.01 94 1015.1
20260506203015 38 320 0.0 0.0 0.00 0.01 0.01 93 1015.0
20260506201519 38 320 0.0 0.0 0.00 0.01 0.01 93 1015.1
20260506200024 38 320 0.0 0.0 0.00 0.01 0.01 93 1015.1
20260506194515 38 320 0.0 0.0 0.00 0.01 0.01 93 1015.0
20260506193016 38 320 0.0 0.0 0.00 0.01 0.01 93 1014.9
20260506191514 38 319 0.0 0.0 0.00 0.01 0.01 92 1014.8
20260506190013 39 319 0.0 0.0 0.00 0.01 0.01 92 1014.7
20260506184513 39 319 0.0 0.0 0.00 0.01 0.01 92 1014.6
20260506183011 39 319 0.0 0.0 0.00 0.01 0.01 91 1014.6
20260506181511 40 320 0.0 0.0 0.00 0.01 0.01 90 1014.6
20260506180011 41 320 0.0 0.0 0.00 0.01 0.01 91 1014.5
20260506174512 41 320 0.0 0.0 0.00 0.01 0.01 91 1014.5
20260506173010 41 320 0.0 0.0 0.00 0.01 0.01 91 1014.5
20260506171509 41 319 0.0 0.0 0.00 0.01 0.01 91 1014.4
20260506170009 41 350 0.0 0.0 0.00 0.01 0.01 91 1014.5
20260506164509 40 337 0.0 0.0 0.00 0.01 0.01 91 1014.4
20260506163012 40 236 0.0 0.0 0.00 0.01 0.01 91 1014.4
20260506161508 39 198 0.0 0.0 0.00 0.01 0.01 90 1014.3
20260506160012 39 198 0.0 0.0 0.00 0.01 0.01 90 1014.5
20260506154508 39 197 0.0 0.0 0.00 0.01 0.01 91 1014.6
20260506153006 38 197 0.0 0.0 0.00 0.01 0.01 90 1014.7
20260506151506 38 197 0.0 0.0 0.00 0.01 0.01 91 1014.8
20260506150007 38 170 0.0 0.0 0.00 0.01 0.01 90 1014.8
20260506144605 38 135 0.0 0.9 0.00 0.01 0.01 90 1014.8
20260506143013 38 123 0.0 0.0 0.00 0.01 0.01 89 1014.9
20260506141504 40 160 0.0 1.7 0.00 0.01 0.01 87 1015.1
20260506140003 40 165 0.0 0.0 0.00 0.01 0.01 87 1014.6